Regional Weather Roundup
Issued by NWS

Home | Current Version | Previous Version | Graphics & Text | Print | Product List | Glossary On
Versions: 1 2 3 4 5 6 7 8 9 10 11 12 13 14 15 16 17 18 19 20 21 22 23 24 25 26 27 28 29 30 31 32 33 34 35 36 37 38 39 40 41 42 43 44 45 46 47 48 49 50
000
ASUS43 KIND 031359
RWRIN

WEATHER ROUNDUP FOR INDIANA
NATIONAL WEATHER SERVICE INDIANAPOLIS IN
900 AM EST TUE MAR 03 2015

NOTE: "FAIR" INDICATES FEW OR NO CLOUDS BELOW 12,000 FEET WITH NO
SIGNIFICANT WEATHER AND/OR OBSTRUCTIONS TO VISIBILITY.

* - STATION DOES NOT REPORT WEATHER SUCH AS PRECIPITATION OR FOG.

+ - STATION NOT QUALITY CONTROLLED BY THE NATIONAL WEATHER SERVICE.
    USE DATA WITH CAUTION...ESPECIALLY DEWPOINT AND RELATIVE
    HUMIDITY OBSERVATIONS.

INZ001>003-010>013-019-020-031500-
NORTHWEST INDIANA

CITY           SKY/WX    TMP DP  RH WIND       PRES   REMARKS
GARY /AIRPORT/ CLOUDY    28  23  80 SE12      29.89F HAZE    WCI  18
VALPARAISO     MIX PCPN  26  24  92 SE15G21   29.90F FOG     WCI  14

$$

LMZ046-743>745-031500-
SOUTHERN LAKE MICHIGAN

STATION/POSITION TIME  TEMP WIND        PRES
                       AIR  DIR/SP/G
                 (UTC) (F)  (DEG/KT/KT) (MB)
MICHIGAN CITY    1300   26  120/ 15/ 18   N/A

$$

INZ004-005-014>016-021>024-031500-
NORTH CENTRAL INDIANA

CITY           SKY/WX    TMP DP  RH WIND       PRES   REMARKS
ELKHART        CLOUDY    25  18  74 SE10      29.97F WCI  15
GOSHEN         CLOUDY    25  20  81 SE14      29.97F HAZE    WCI  13
PERU/GRISSOM   DRIZZLE   27  23  86 SE12      29.96F WCI  16
SOUTH BEND     FRZ RAIN  27  22  81 SE16      29.94F WCI  15

$$

INZ006>009-017-018-025>027-031500-
NORTHEAST INDIANA

CITY           SKY/WX    TMP DP  RH WIND       PRES   REMARKS
ANGOLA *+      CLOUDY    21  18  86 SE10      30.00F WCI  10
FORT WAYNE     FRZ DRZL  26  21  81 SE13      30.01F WCI  15

$$

INZ028-029-035-036-043>045-051>053-031500-
WEST CENTRAL INDIANA

CITY           SKY/WX    TMP DP  RH WIND       PRES   REMARKS
CRAWFORDSVL +  CLOUDY    27  19  71 SE17      29.94F HAZE    WCI  14
GREENCASTLE +  CLOUDY    30  23  74 SE10      29.97F HAZE    WCI  21
LAFAYETTE      CLOUDY    27  24  89 SE9       29.93F FOG     WCI  18
TERRE HAUTE    CLOUDY    31  27  85 SE15      29.95F FOG     WCI  20

$$

INZ030>032-037>040-046>048-054>057-064-065-031500-
CENTRAL INDIANA

CITY           SKY/WX    TMP DP  RH WIND       PRES   REMARKS
ANDERSON       LGT RAIN  28  19  69 SE12      30.01  WCI  18
GREENWOOD *+   CLOUDY    28  19  69 SE7       30.01F WCI  21
INDIANAPOLIS   CLOUDY    29  21  72 SE14      29.98F WCI  18
-EAGLE CREEK   CLOUDY    28  21  75 SE8       29.98F WCI  20
KOKOMO *+      PTSUNNY   27  21  80 S15       29.98F WCI  15
MT COMFORT *+  CLOUDY    28  16  59 SE10      29.99F WCI  19
SHELBYVILLE    CLOUDY    31  22  69 SE13      30.01  WCI  21

$$

INZ033-034-041-042-049-050-058-059-031500-
EAST CENTRAL INDIANA

CITY           SKY/WX    TMP DP  RH WIND       PRES   REMARKS
MUNCIE         CLOUDY    28  20  71 SE13      30.00F WCI  17

$$

INZ060-061-067>069-081>083-085>088-031500-
SOUTHWEST INDIANA

CITY           SKY/WX    TMP DP  RH WIND       PRES   REMARKS
EVANSVILLE     LGT RAIN  37  31  78 S7        30.01F
HUNTINGBURG *+ CLOUDY    36  28  75 S10       30.02F

$$

INZ062-063-066-070>080-084-089>092-031500-
SOUTH CENTRAL AND SOUTHEAST INDIANA

CITY           SKY/WX    TMP DP  RH WIND       PRES   REMARKS
BLOOMINGTON    MIX PCPN  30  25  81 SE9       29.97F WCI  22
SEYMOUR +      CLOUDY    34  23  64 SE9       30.03F WCI  26

$$




USA.gov is the U.S. government's official web portal to all federal, state and local government web resources and services.